Погода в Дылыме

Россия / Республика Дагестан     43°04′14″N   46°38′13″E
темп.,
°C
ветер,
м/с
пор.,
м/с
влажн.,
%
обл.,
%
осадки,
мм/ч
давл.,
гПа
погр.,
м
28 июня, вт
вт2800:00+18з337697 0.0 101153
03:00+17з348168 0.1 101068
06:00+18зсз36832 0.1 1011421
09:00+22сз45570 0.1 1010876
12:00+24ссз55480 0.0 10101327
15:00+25ссв444177 0.0 10102072
18:00+20с34536 0.1 1012351
21:00+16зюз32654 0.4 101432
29 июня, ср
ср2900:00+16юз33620 0.0 101428
03:00+16юз22590 0.0 101320
06:00+18з115898 0.0 101467
09:00+21с224354 0.0 10141083
12:00+24ссв224064 0.1 10131671
15:00+24св2240100 0.1 10131867
18:00+19юв2379100 0.3 1014168
21:00+17ююв2284100 0.4 101526
30 июня, чт
чт3000:00+16ююв2281100 0.0 101524
03:00+15юв228899 0.0 101440
06:00+16юв238630 0.0 1015260
09:00+20в337260 0.1 1014784
12:00+22в445753 0.4 10131109
15:00+21в444734 0.6 10131088
18:00+18в335638 0.1 1014523
21:00+15ю227438 0.3 101528
1 июля, пт
пт100:00+16ююв1170100 0.1 101423
03:00+16ююв226761 0.1 101326
06:00+16юв126699 0.0 101472
09:00+18в2252100 0.1 1014551
12:00+19вюв2252100 0.3 1014854
15:00+20в125399 0.8 10141077
18:00+18в1262100 0.2 1015211
21:00+16ююз2270100 0.5 101751
2 июля, сб
сб200:00+14ююз3375100 0.9 101760
03:00+15ююз3373100 1.1 101749
06:00+15ю117197 0.1 101723
09:00+19в224699 0.1 10171178
12:00+22всв224156 0.0 10161759
15:00+22св114143 0.0 10161813
18:00+19всв345326 0.0 1016451
21:00+14ююв336721 0.0 101838